Theta_e
317 317 317 318 319 321 322 322 322 322 321 322 321 329 333 332 334 334 334 332 332 334 332 333 329 326 326 325 325 326 329 331 328 324 323 323 325 325 326 326 325 321 317
319 318 319 320 321 321 322 322 321 321 322 323 321 331 333 331 332 332 332 330 328 328 331 331 330 326 328 326 329 330 331 328 324 324 324 325 326 326 326 323 319 316 309
320 321 321 321 320 320 320 321 321 321 323 323 320 332 332 331 331 332 332 330 327 333 332 330 329 326 327 330 331 330 328 325 325 326 326 326 326 324 322 321 317 312 308
321 321 321 319 321 320 321 321 322 322 323 323 324 332 331 331 332 333 330 329 331 334 331 330 330 329 331 330 330 329 326 326 326 326 326 326 325 324 323 318 313 310 307
321 322 322 321 320 321 321 322 323 322 328 324 330 330 331 332 332 332 329 330 331 331 329 330 331 330 330 329 331 328 328 328 327 327 326 326 324 324 320 312 309 307 308
323 323 323 322 322 322 323 323 323 328 326 327 331 333 332 332 332 331 331 331 331 328 330 329 329 330 330 331 331 330 330 329 328 327 326 325 325 323 316 308 308 310 309
321 323 323 322 321 323 324 325 325 326 328 330 330 330 331 332 330 330 329 328 328 327 327 328 329 331 333 332 330 330 329 327 326 325 327 326 323 315 309 309 310 308 309
323 322 324 323 324 326 326 325 326 326 330 329 330 331 330 330 329 328 328 331 330 329 329 329 331 331 331 330 330 329 326 325 326 327 326 325 313 309 309 310 308 309 309
325 326 326 326 327 327 328 327 327 330 329 329 329 330 329 329 329 329 330 331 331 331 330 330 329 329 330 330 329 328 327 328 327 326 321 310 310 309 309 308 309 310 310
325 325 325 325 327 327 327 328 327 328 329 330 330 329 330 329 329 328 330 331 330 329 328 329 328 328 327 328 330 330 329 327 327 319 310 310 309 308 309 310 310 310 309
325 325 325 327 327 327 327 323 329 329 330 330 330 329 329 329 329 329 329 330 329 328 328 328 328 329 329 329 329 328 326 326 322 311 309 308 309 310 310 310 309 309 309
324 326 326 326 326 327 328 327 329 330 329 329 329 328 329 329 329 328 327 328 328 328 327 326 325 326 327 327 325 324 321 317 311 309 309 310 310 310 310 311 310 310 310
327 326 322 324 326 327 327 326 326 327 328 328 329 329 329 329 328 327 326 327 328 326 325 324 323 324 324 324 323 315 308 309 309 310 310 310 311 311 311 311 310 308 306
324 327 324 326 328 326 326 326 326 327 328 328 329 329 329 328 327 326 326 326 327 325 321 321 321 323 323 323 309 307 310 312 312 312 311 312 313 313 311 310 308 305 302
327 327 328 328 328 328 327 327 328 327 327 328 328 328 328 328 327 327 327 326 326 324 317 315 311 308 310 308 308 312 314 313 312 314 315 314 313 312 311 307 305 302 300
323 327 327 327 328 328 328 328 329 329 328 328 328 328 327 327 326 326 327 326 326 325 314 306 309 310 311 313 314 313 313 314 316 316 316 314 313 310 306 306 304 300 297
324 323 326 327 327 327 327 327 327 327 329 329 328 328 327 326 325 326 327 326 321 317 310 310 312 313 315 316 315 315 315 316 318 317 315 311 308 307 307 304 299 297 296
320 320 322 325 326 325 326 328 325 322 324 327 327 327 326 326 326 326 324 322 311 306 309 311 312 314 317 317 317 317 317 318 319 315 311 309 308 306 304 300 298 296 295
319 319 316 315 318 321 324 325 327 322 316 317 316 316 314 315 316 314 313 311 317 312 313 315 314 315 316 317 318 318 319 320 317 311 309 308 306 303 300 298 295 295 295
320 320 318 317 315 314 315 316 317 317 317 317 316 316 317 318 318 319 319 319 318 317 318 318 317 316 317 318 319 319 320 318 313 310 307 305 303 301 299 296 294 294 294
319 319 317 316 317 317 317 317 317 318 318 319 319 319 319 320 319 319 318 317 318 318 318 318 319 319 318 317 318 319 319 315 311 307 304 303 301 299 297 294 294 294 293
320 319 321 320 318 316 315 315 317 318 319 319 319 319 319 319 319 318 317 315 315 316 317 318 319 319 318 317 318 319 317 312 308 305 302 301 300 298 296 294 293 293 293
319 320 318 318 316 313 312 312 312 312 312 313 313 313 311 312 312 310 309 309 309 308 309 311 314 315 316 317 317 317 314 311 306 300 300 300 300 298 296 294 293 293 293
314 314 314 314 312 309 308 306 305 305 305 305 304 304 304 304 304 305 305 306 307 307 308 309 310 310 310 311 312 311 309 302 300 299 298 299 299 298 296 295 294 293 293
310 309 309 307 306 305 305 306 306 306 306 307 309 311 312 313 313 313 313 312 312 311 309 308 307 306 305 304 305 303 301 300 299 298 298 298 298 297 296 295 294 293 293
308 307 307 307 307 309 310 312 313 314 315 315 316 316 316 316 316 315 315 315 315 314 314 314 313 312 310 307 304 301 300 299 298 297 297 297 297 297 295 295 294 293 294
Wind_Speed
2 7 11 13 14 15 17 19 22 22 22 21 22 26 25 27 25 26 31 32 30 27 25 25 26 27 27 27 27 28 24 21 20 18 16 15 13 11 9 7 6 7 7
3 5 8 11 13 14 17 18 19 20 22 22 23 26 27 29 30 27 30 30 31 27 26 27 29 29 27 27 27 26 22 19 17 17 14 12 11 9 7 6 5 7 7
4 5 8 11 13 14 16 17 17 18 22 22 24 28 29 29 29 27 30 33 30 26 27 28 28 28 27 26 25 23 20 17 15 14 12 10 9 8 6 5 6 6 6
4 7 10 12 13 15 16 17 17 19 20 22 26 29 30 31 31 33 34 28 23 28 27 27 27 27 27 25 23 21 18 15 14 13 10 9 6 4 5 5 5 5 5
7 8 9 11 14 15 16 16 17 19 21 24 27 30 30 30 29 30 31 26 24 24 24 26 25 26 25 24 23 20 17 15 13 10 8 6 2 4 4 4 4 5 6
5 7 10 12 14 15 16 18 19 22 24 27 31 32 32 29 27 25 22 31 28 26 24 23 23 23 23 23 21 18 15 13 11 9 5 1 3 4 3 3 5 5 6
5 7 10 14 13 15 18 21 25 26 29 32 35 31 24 29 27 27 31 29 28 26 22 21 22 20 21 20 15 14 13 11 10 7 2 1 2 4 3 3 4 5 7
12 7 8 12 13 20 22 24 28 32 34 34 38 37 30 33 24 24 28 23 24 23 23 23 21 20 19 17 17 14 12 10 6 4 1 2 2 2 3 4 5 6 7
17 15 16 13 12 22 25 27 30 34 36 35 35 23 28 18 31 25 24 23 24 24 23 20 18 17 17 9 11 10 9 8 5 3 3 3 2 4 5 4 4 5 7
20 21 15 8 17 25 26 29 34 35 38 43 32 34 20 40 28 24 27 24 21 20 17 15 16 16 11 9 8 7 6 4 7 6 4 4 5 5 3 3 5 6 8
14 14 16 20 17 18 27 26 29 37 39 38 37 33 21 30 34 34 31 26 23 21 20 16 15 15 13 11 9 10 8 7 6 6 6 6 5 2 2 4 6 8 9
12 10 11 19 17 16 22 25 21 25 29 28 26 29 33 36 35 40 36 25 21 17 13 11 10 12 11 12 11 9 8 8 9 8 6 4 2 2 4 5 6 9 11
13 14 17 17 18 18 22 27 24 18 22 23 25 28 32 32 37 38 36 30 23 18 13 12 10 10 11 12 11 11 11 11 9 6 4 1 2 4 5 7 9 11 12
18 15 15 17 18 19 19 21 17 13 18 16 24 21 23 29 27 27 30 28 24 18 16 12 12 12 14 15 14 14 13 10 7 3 2 4 5 5 6 9 11 12 13
15 19 15 15 17 21 20 19 17 21 14 15 16 20 23 20 22 24 23 22 25 21 18 18 18 17 17 16 16 14 10 6 5 3 4 6 6 7 9 10 12 13 13
15 14 14 13 13 14 12 16 12 13 17 18 19 21 19 22 19 21 20 20 17 17 16 21 19 19 18 16 14 11 9 7 5 6 7 8 9 9 9 12 14 14 13
11 14 15 15 16 16 19 21 22 21 21 21 21 20 22 25 21 19 18 18 10 14 17 23 23 20 17 14 11 9 8 7 6 8 10 10 9 10 12 14 14 14 14
11 11 14 13 13 13 14 16 20 19 20 22 22 22 22 22 20 18 15 12 12 14 14 22 22 19 16 12 10 9 9 7 9 11 12 11 12 13 13 14 14 13 13
12 11 13 13 14 14 13 14 14 16 21 23 23 22 21 20 19 18 17 16 12 13 11 10 18 18 15 12 12 11 9 12 13 13 13 13 13 13 13 12 12 12 13
11 11 10 12 13 14 13 13 14 15 17 16 14 13 14 12 11 13 12 11 12 13 13 9 8 12 13 12 13 13 14 15 15 16 16 16 15 14 13 12 11 12 12
9 10 10 11 10 8 8 8 10 10 11 12 12 11 11 9 7 7 6 6 10 14 13 13 13 13 15 15 15 15 17 17 18 18 19 17 16 14 13 11 11 12 13
10 9 9 9 9 8 9 9 9 10 10 9 8 8 8 9 8 7 8 9 10 13 16 16 17 18 15 15 18 19 19 19 21 20 20 20 18 15 14 13 13 13 14
11 10 9 7 5 5 6 8 9 9 9 9 9 8 7 6 6 6 6 6 8 9 10 9 10 12 15 15 17 19 21 22 23 20 17 20 20 19 16 14 15 14 14
12 12 11 9 7 6 7 7 8 9 9 9 8 7 7 6 5 5 5 5 5 4 5 6 9 11 14 16 18 19 20 19 21 22 21 22 22 21 19 17 18 17 16
14 11 10 9 8 8 8 10 10 10 10 9 8 8 6 6 4 2 0 2 4 5 7 9 11 13 15 17 18 20 21 21 22 23 23 23 23 21 21 20 19 19 16
12 12 12 12 11 11 11 11 11 10 8 7 6 4 3 1 2 4 6 8 9 11 13 15 18 19 21 21 21 21 21 23 23 24 24 25 24 21 21 21 20 21 19
Wind_Direction
138 174 183 192 197 207 201 197 194 194 195 194 193 187 182 176 177 169 166 162 167 174 174 172 168 158 151 146 144 139 134 135 132 127 125 121 110 102 94 82 59 38 19
103 146 171 184 194 192 190 194 194 193 194 194 194 186 180 180 184 173 166 163 153 157 169 170 162 155 152 148 144 139 141 139 135 129 125 119 112 101 86 65 37 14 8
164 187 188 189 183 180 181 185 190 194 194 195 190 182 179 179 179 176 168 170 157 171 172 166 160 155 152 148 149 145 146 142 137 128 129 124 108 86 50 23 10 7 7
205 219 196 187 187 183 184 187 190 196 191 188 185 181 179 179 171 166 156 151 172 170 165 161 159 154 152 151 148 146 142 139 134 134 136 116 96 50 17 11 13 16 31
244 220 204 191 185 188 189 192 188 190 175 180 179 174 174 174 176 168 162 164 166 163 163 158 159 154 153 151 149 143 141 139 141 139 132 140 23 1 5 14 21 50 57
211 194 193 187 179 192 191 185 183 174 175 174 171 173 173 171 174 175 181 168 161 160 161 158 158 154 155 151 148 143 141 144 145 146 158 233 330 354 25 57 66 59 46
195 179 191 195 195 190 189 176 178 165 160 170 168 168 173 168 159 150 153 154 160 158 158 170 155 159 154 145 137 145 149 148 145 168 207 324 52 54 70 87 75 62 48
138 155 172 183 181 158 162 169 170 163 164 170 156 146 134 148 154 162 165 163 163 164 164 162 152 159 153 139 156 155 147 154 179 200 190 56 54 78 99 90 72 52 37
84 84 124 131 156 153 160 162 165 159 165 170 164 147 135 140 151 163 166 160 154 153 153 150 146 144 143 151 149 150 172 191 192 204 135 112 109 108 108 87 55 27 16
78 77 109 150 141 161 150 164 171 174 171 158 162 154 160 160 147 114 146 147 150 147 142 146 152 158 165 168 152 163 164 163 141 137 126 118 118 120 92 44 8 358 357
78 78 62 81 126 133 152 158 148 166 170 155 162 164 161 159 156 146 129 135 143 146 157 164 172 179 173 161 168 184 176 168 150 146 144 137 115 85 30 2 354 345 335
87 62 75 99 106 112 134 148 150 156 161 174 171 172 169 163 163 158 149 144 146 140 142 148 147 155 149 149 149 157 155 149 141 142 135 126 113 21 355 342 334 321 318
134 117 110 109 117 119 129 128 121 148 155 182 186 177 177 171 168 166 158 152 151 147 148 151 147 141 147 149 148 152 148 143 140 150 150 91 312 315 325 323 318 319 318
113 129 139 104 112 129 130 133 137 123 121 154 178 184 185 172 170 176 174 165 153 153 148 151 154 149 150 154 152 151 151 159 157 163 272 284 302 309 308 310 320 320 316
118 124 127 139 125 121 123 146 142 151 126 113 154 162 169 171 178 186 183 190 183 162 154 158 156 158 154 148 151 163 169 180 203 245 297 300 293 296 310 314 313 314 322
99 103 110 105 116 124 144 133 140 147 157 143 147 156 159 169 167 173 182 185 198 188 160 163 162 156 155 156 165 177 191 205 244 280 295 297 288 291 302 309 319 321 325
117 112 112 111 114 103 106 115 115 113 123 136 147 155 162 168 170 172 175 182 182 191 182 165 165 164 169 175 184 196 217 235 268 288 287 282 285 300 307 313 324 325 317
107 106 118 125 124 119 115 124 122 122 124 133 137 143 145 149 155 159 163 170 175 181 185 169 171 178 184 191 205 223 226 254 279 279 278 282 289 296 307 315 315 304 304
138 116 114 127 131 125 124 122 126 126 128 130 132 135 134 141 144 145 145 152 154 164 178 188 185 190 198 208 209 217 244 261 265 271 274 280 284 296 303 302 300 302 306
139 138 140 129 126 123 120 120 125 130 135 137 134 137 132 128 135 143 149 164 183 178 188 197 202 208 215 216 225 240 245 256 268 271 271 272 279 283 291 294 294 292 293
148 146 135 134 137 138 130 126 128 133 133 136 135 135 140 144 145 151 160 176 197 208 211 223 234 234 233 234 241 246 246 256 262 264 265 264 269 278 283 282 282 284 295
170 162 154 142 134 138 144 151 160 165 168 167 169 171 180 190 198 202 202 199 201 216 228 239 245 250 252 254 251 249 250 252 245 259 258 258 262 265 269 275 279 282 293
192 189 190 200 209 195 182 185 189 188 186 187 194 201 206 206 214 218 216 216 213 213 214 218 232 246 249 258 260 261 263 271 268 261 256 251 254 257 263 272 275 281 295
207 210 211 216 217 204 187 176 167 159 156 156 157 155 157 157 158 165 174 181 195 213 233 242 250 257 263 260 260 263 264 262 259 260 256 251 255 254 259 269 272 274 290
202 202 195 182 167 156 153 148 142 141 141 140 139 139 137 130 134 139 59 322 307 304 298 291 287 284 283 281 278 274 268 262 260 261 257 252 253 253 257 265 267 264 287
175 173 170 165 159 153 147 142 139 137 138 143 149 147 151 190 260 277 285 289 290 286 283 281 280 281 281 281 279 275 269 267 266 263 261 251 255 252 253 259 265 264 287